Time,TemperatureF,DewpointF,PressureIn,WindDirection,WindDirectionDegrees,WindSpeedMPH,WindSpeedGustMPH,Humidity,HourlyPrecipIn,Conditions,Clouds,dailyrainin,SoftwareType,DateUTC
2013-06-21 00:02:00,65.2,61.0,30.29,ENE,62,0.0,0.0,85,0.00,,,0.59,weatherlink.com 1.10,2013-06-21 04:02:00,
2013-06-21 00:17:00,65.0,60.0,30.29,ENE,62,0.0,0.0,85,0.00,,,0.59,weatherlink.com 1.10,2013-06-21 04:17:00,
2013-06-21 00:32:00,65.0,60.0,30.29,ENE,62,0.0,0.0,85,0.00,,,0.59,weatherlink.com 1.10,2013-06-21 04:32:00,
2013-06-21 00:47:00,64.9,60.0,30.29,ENE,62,0.0,0.0,85,0.00,,,0.59,weatherlink.com 1.10,2013-06-21 04:47:00,
2013-06-21 01:02:00,64.8,60.0,30.29,ENE,63,0.0,0.0,85,0.00,,,0.00,weatherlink.com 1.10,2013-06-21 05:02:00,
2013-06-21 01:17:00,64.6,60.0,30.28,ENE,62,0.0,0.0,85,0.00,,,0.00,weatherlink.com 1.10,2013-06-21 05:17:00,
2013-06-21 01:32:00,64.2,60.0,30.28,ENE,62,0.0,0.0,85,0.00,,,0.00,weatherlink.com 1.10,2013-06-21 05:32:00,
2013-06-21 01:47:00,64.1,60.0,30.28,ENE,62,0.0,0.0,85,0.00,,,0.00,weatherlink.com 1.10,2013-06-21 05:47:00,
2013-06-21 02:02:00,63.9,59.0,30.27,ENE,63,0.0,0.0,84,0.00,,,0.00,weatherlink.com 1.10,2013-06-21 06:02:00,
2013-06-21 02:17:00,63.7,59.0,30.27,ENE,63,0.0,0.0,85,0.00,,,0.00,weatherlink.com 1.10,2013-06-21 06:17:00,
2013-06-21 02:32:00,63.4,59.0,30.27,ENE,62,0.0,0.0,84,0.00,,,0.00,weatherlink.com 1.10,2013-06-21 06:32:00,
2013-06-21 02:47:00,63.2,59.0,30.28,ENE,62,0.0,0.0,85,0.00,,,0.00,weatherlink.com 1.10,2013-06-21 06:47:00,
2013-06-21 03:02:00,62.7,58.0,30.28,ENE,62,0.0,0.0,85,0.00,,,0.00,weatherlink.com 1.10,2013-06-21 07:02:00,
2013-06-21 03:17:00,62.5,58.0,30.28,ENE,62,0.0,0.0,85,0.00,,,0.00,weatherlink.com 1.10,2013-06-21 07:17:00,
2013-06-21 03:33:00,62.2,58.0,30.28,ENE,62,0.0,0.0,85,0.00,,,0.00,weatherlink.com 1.10,2013-06-21 07:33:00,
2013-06-21 03:48:00,62.4,58.0,30.28,ENE,63,0.0,0.0,84,0.00,,,0.00,weatherlink.com 1.10,2013-06-21 07:48:00,
2013-06-21 04:03:00,62.2,57.0,30.28,ENE,62,0.0,0.0,84,0.00,,,0.00,weatherlink.com 1.10,2013-06-21 08:03:00,
2013-06-21 04:18:00,62.3,57.0,30.28,ENE,58,0.0,0.0,84,0.00,,,0.00,weatherlink.com 1.10,2013-06-21 08:18:00,
2013-06-21 04:33:00,62.3,57.0,30.28,ENE,58,0.0,0.0,84,0.00,,,0.00,weatherlink.com 1.10,2013-06-21 08:33:00,
2013-06-21 04:48:00,62.2,58.0,30.28,ENE,58,0.0,0.0,85,0.00,,,0.00,weatherlink.com 1.10,2013-06-21 08:48:00,
2013-06-21 05:03:00,62.1,58.0,30.29,ENE,58,0.0,0.0,85,0.00,,,0.00,weatherlink.com 1.10,2013-06-21 09:03:00,
2013-06-21 05:18:00,62.0,57.0,30.29,ENE,58,0.0,0.0,84,0.00,,,0.00,weatherlink.com 1.10,2013-06-21 09:18:00,
2013-06-21 05:33:00,61.9,57.0,30.29,ENE,58,0.0,0.0,85,0.00,,,0.00,weatherlink.com 1.10,2013-06-21 09:33:00,
2013-06-21 05:48:00,61.9,57.0,30.29,ENE,58,0.0,0.0,84,0.00,,,0.00,weatherlink.com 1.10,2013-06-21 09:48:00,
2013-06-21 06:03:00,62.0,57.0,30.29,ENE,58,0.0,0.0,84,0.00,,,0.00,weatherlink.com 1.10,2013-06-21 10:03:00,
2013-06-21 06:18:00,62.3,57.0,30.30,ENE,58,0.0,0.0,84,0.00,,,0.00,weatherlink.com 1.10,2013-06-21 10:18:00,
2013-06-21 06:33:00,62.2,57.0,30.30,ENE,58,0.0,0.0,84,0.00,,,0.00,weatherlink.com 1.10,2013-06-21 10:33:00,
2013-06-21 06:48:00,62.0,58.0,30.30,ENE,58,0.0,0.0,85,0.00,,,0.00,weatherlink.com 1.10,2013-06-21 10:48:00,
2013-06-21 07:03:00,62.0,57.0,30.30,ENE,58,0.0,0.0,84,0.00,,,0.00,weatherlink.com 1.10,2013-06-21 11:03:00,
2013-06-21 07:18:00,62.3,57.0,30.30,ENE,58,0.0,0.0,84,0.00,,,0.00,weatherlink.com 1.10,2013-06-21 11:18:00,
2013-06-21 07:33:00,62.9,58.0,30.30,ENE,58,0.0,0.0,84,0.00,,,0.00,weatherlink.com 1.10,2013-06-21 11:33:00,
2013-06-21 07:48:00,63.5,59.0,30.31,ENE,58,0.0,0.0,84,0.00,,,0.00,weatherlink.com 1.10,2013-06-21 11:48:00,
2013-06-21 08:03:00,64.2,59.0,30.32,ENE,58,0.0,0.0,84,0.00,,,0.00,weatherlink.com 1.10,2013-06-21 12:03:00,
2013-06-21 08:18:00,64.9,60.0,30.32,ENE,58,0.0,0.0,84,0.00,,,0.00,weatherlink.com 1.10,2013-06-21 12:18:00,
2013-06-21 08:33:00,65.9,61.0,30.32,ENE,58,0.0,0.0,84,0.00,,,0.00,weatherlink.com 1.10,2013-06-21 12:33:00,
2013-06-21 08:48:00,66.9,62.0,30.32,ENE,58,0.0,0.0,84,0.00,,,0.00,weatherlink.com 1.10,2013-06-21 12:48:00,
2013-06-21 09:03:00,67.8,63.0,30.32,ENE,58,0.0,0.0,84,0.00,,,0.00,weatherlink.com 1.10,2013-06-21 13:03:00,
2013-06-21 09:18:00,68.3,63.0,30.32,ENE,58,0.0,0.0,84,0.00,,,0.00,weatherlink.com 1.10,2013-06-21 13:18:00,
2013-06-21 09:33:00,68.4,64.0,30.32,ENE,58,0.0,0.0,87,0.00,,,0.00,weatherlink.com 1.10,2013-06-21 13:33:00,
2013-06-21 09:48:00,69.2,65.0,30.32,ENE,58,0.0,0.0,87,0.00,,,0.00,weatherlink.com 1.10,2013-06-21 13:48:00,
2013-06-21 10:03:00,69.7,67.0,30.32,WSW,246,0.0,0.0,90,0.00,,,0.00,weatherlink.com 1.10,2013-06-21 14:03:00,
2013-06-21 10:33:00,71.9,68.0,30.32,ENE,65,0.0,0.0,86,0.00,,,0.00,weatherlink.com 1.10,2013-06-21 14:33:00,
2013-06-21 10:48:00,71.6,67.0,30.33,NW,305,0.0,0.0,84,0.00,,,0.00,weatherlink.com 1.10,2013-06-21 14:48:00,
2013-06-21 11:03:00,71.8,68.0,30.33,North,354,0.0,0.0,86,0.00,,,0.00,weatherlink.com 1.10,2013-06-21 15:03:00,
2013-06-21 11:18:00,72.5,67.0,30.34,West,270,0.0,0.0,84,0.00,,,0.00,weatherlink.com 1.10,2013-06-21 15:18:00,
2013-06-21 11:33:00,73.1,67.0,30.34,SW,222,0.0,0.0,81,0.00,,,0.00,weatherlink.com 1.10,2013-06-21 15:33:00,
2013-06-21 11:48:00,73.6,65.0,30.34,West,281,0.0,1.0,75,0.00,,,0.00,weatherlink.com 1.10,2013-06-21 15:48:00,
2013-06-21 12:03:00,73.7,68.0,30.34,West,271,0.0,0.0,82,0.00,,,0.00,weatherlink.com 1.10,2013-06-21 16:03:00,
2013-06-21 12:19:00,74.3,66.0,30.34,West,280,0.0,0.0,75,0.00,,,0.00,weatherlink.com 1.10,2013-06-21 16:19:00,
2013-06-21 12:34:00,74.9,69.0,30.33,WSW,255,0.0,0.0,81,0.00,,,0.00,weatherlink.com 1.10,2013-06-21 16:34:00,
2013-06-21 12:49:00,75.3,67.0,30.33,NW,308,0.0,0.0,74,0.00,,,0.00,weatherlink.com 1.10,2013-06-21 16:49:00,
2013-06-21 13:04:00,76.2,64.0,30.33,NNW,345,0.0,1.0,67,0.00,,,0.00,weatherlink.com 1.10,2013-06-21 17:04:00,
2013-06-21 13:19:00,75.9,65.0,30.32,NE,48,0.0,0.0,70,0.00,,,0.00,weatherlink.com 1.10,2013-06-21 17:19:00,
2013-06-21 13:34:00,77.7,67.0,30.32,West,281,0.0,0.0,70,0.00,,,0.00,weatherlink.com 1.10,2013-06-21 17:34:00,
2013-06-21 13:49:00,79.8,68.0,30.32,SSW,211,0.0,1.0,67,0.00,,,0.00,weatherlink.com 1.10,2013-06-21 17:49:00,
2013-06-21 14:04:00,80.8,66.0,30.31,NNE,31,0.0,1.0,61,0.00,,,0.00,weatherlink.com 1.10,2013-06-21 18:04:00,
2013-06-21 14:19:00,82.0,68.0,30.31,NW,307,0.0,1.0,62,0.00,,,0.00,weatherlink.com 1.10,2013-06-21 18:19:00,
2013-06-21 14:34:00,81.4,65.0,30.30,SSE,155,0.0,1.0,58,0.00,,,0.00,weatherlink.com 1.10,2013-06-21 18:34:00,
2013-06-21 14:49:00,80.4,67.0,30.30,South,190,0.0,0.0,64,0.00,,,0.00,weatherlink.com 1.10,2013-06-21 18:49:00,
2013-06-21 15:04:00,80.8,70.0,30.29,SW,219,0.0,0.0,69,0.00,,,0.00,weatherlink.com 1.10,2013-06-21 19:04:00,
2013-06-21 15:19:00,81.8,65.0,30.29,NW,307,0.0,1.0,58,0.00,,,0.00,weatherlink.com 1.10,2013-06-21 19:19:00,
2013-06-21 15:34:00,82.3,67.0,30.29,WSW,255,0.0,1.0,60,0.00,,,0.00,weatherlink.com 1.10,2013-06-21 19:34:00,
2013-06-21 15:49:00,82.8,67.0,30.28,WSW,253,0.0,0.0,60,0.00,,,0.00,weatherlink.com 1.10,2013-06-21 19:49:00,
2013-06-21 16:04:00,80.4,68.0,30.28,West,262,0.0,0.0,67,0.00,,,0.00,weatherlink.com 1.10,2013-06-21 20:04:00,
2013-06-21 16:19:00,81.1,65.0,30.27,NW,305,0.0,0.0,58,0.00,,,0.00,weatherlink.com 1.10,2013-06-21 20:19:00,
2013-06-21 16:34:00,80.0,68.0,30.27,NW,315,0.0,0.0,66,0.00,,,0.00,weatherlink.com 1.10,2013-06-21 20:34:00,
2013-06-21 16:49:00,76.1,68.0,30.28,SSW,200,0.0,1.0,76,0.00,,,0.00,weatherlink.com 1.10,2013-06-21 20:49:00,
2013-06-21 17:19:00,70.6,66.0,30.28,SSW,210,0.0,1.0,84,0.01,,,0.01,weatherlink.com 1.10,2013-06-21 21:19:00,
2013-06-21 17:34:00,69.7,64.0,30.28,SE,125,0.0,0.0,82,0.01,,,0.01,weatherlink.com 1.10,2013-06-21 21:34:00,
2013-06-21 17:49:00,70.2,65.0,30.28,East,88,0.0,1.0,82,0.01,,,0.01,weatherlink.com 1.10,2013-06-21 21:49:00,
2013-06-21 18:04:00,71.0,66.0,30.28,West,259,0.0,0.0,84,0.00,,,0.01,weatherlink.com 1.10,2013-06-21 22:04:00,
2013-06-21 18:19:00,73.4,68.0,30.27,West,267,0.0,0.0,82,0.00,,,0.01,weatherlink.com 1.10,2013-06-21 22:19:00,
2013-06-21 18:34:00,73.9,68.0,30.26,NNE,12,0.0,0.0,81,0.05,,,0.06,weatherlink.com 1.10,2013-06-21 22:34:00,
2013-06-21 18:49:00,71.6,68.0,30.27,ENE,65,0.0,0.0,87,0.05,,,0.06,weatherlink.com 1.10,2013-06-21 22:49:00,
2013-06-21 19:04:00,70.2,66.0,30.26,ENE,65,0.0,0.0,87,0.05,,,0.06,weatherlink.com 1.10,2013-06-21 23:04:00,
2013-06-21 19:34:00,68.3,65.0,30.26,ENE,65,0.0,0.0,88,0.00,,,0.06,weatherlink.com 1.10,2013-06-21 23:34:00,
2013-06-21 19:49:00,67.8,65.0,30.25,ENE,63,0.0,0.0,89,0.00,,,0.06,weatherlink.com 1.10,2013-06-21 23:49:00,
2013-06-21 20:04:00,67.5,64.0,30.26,ENE,64,0.0,0.0,89,0.00,,,0.06,weatherlink.com 1.10,2013-06-22 00:04:00,
2013-06-21 20:19:00,67.2,64.0,30.26,ENE,63,0.0,0.0,89,0.00,,,0.06,weatherlink.com 1.10,2013-06-22 00:19:00,
2013-06-21 20:34:00,66.7,63.0,30.25,ENE,64,0.0,0.0,89,0.00,,,0.06,weatherlink.com 1.10,2013-06-22 00:34:00,
2013-06-21 20:49:00,66.5,63.0,30.25,ENE,64,0.0,0.0,89,0.00,,,0.06,weatherlink.com 1.10,2013-06-22 00:49:00,
2013-06-21 21:04:00,65.8,63.0,30.26,ENE,64,0.0,0.0,89,0.00,,,0.06,weatherlink.com 1.10,2013-06-22 01:04:00,
2013-06-21 21:19:00,65.4,62.0,30.26,ENE,64,0.0,0.0,89,0.00,,,0.06,weatherlink.com 1.10,2013-06-22 01:19:00,
2013-06-21 21:34:00,65.0,62.0,30.27,ENE,63,0.0,0.0,89,0.00,,,0.06,weatherlink.com 1.10,2013-06-22 01:34:00,
2013-06-21 21:49:00,64.6,61.0,30.27,ENE,63,0.0,0.0,88,0.00,,,0.06,weatherlink.com 1.10,2013-06-22 01:49:00,
2013-06-21 22:04:00,64.1,61.0,30.28,ENE,64,0.0,0.0,88,0.00,,,0.06,weatherlink.com 1.10,2013-06-22 02:04:00,
2013-06-21 22:19:00,63.7,60.0,30.29,ENE,63,0.0,0.0,88,0.00,,,0.06,weatherlink.com 1.10,2013-06-22 02:19:00,
2013-06-21 22:34:00,63.1,60.0,30.30,ENE,63,0.0,0.0,89,0.00,,,0.06,weatherlink.com 1.10,2013-06-22 02:34:00,
2013-06-21 22:49:00,62.6,59.0,30.30,ENE,63,0.0,0.0,88,0.00,,,0.06,weatherlink.com 1.10,2013-06-22 02:49:00,
2013-06-21 23:04:00,62.5,59.0,30.30,ENE,64,0.0,0.0,87,0.00,,,0.06,weatherlink.com 1.10,2013-06-22 03:04:00,
2013-06-21 23:19:00,62.4,58.0,30.30,ENE,63,0.0,0.0,86,0.00,,,0.06,weatherlink.com 1.10,2013-06-22 03:19:00,
2013-06-21 23:34:00,62.0,58.0,30.30,ENE,63,0.0,0.0,87,0.00,,,0.06,weatherlink.com 1.10,2013-06-22 03:34:00,
2013-06-21 23:49:00,61.5,58.0,30.30,ENE,64,0.0,0.0,87,0.00,,,0.06,weatherlink.com 1.10,2013-06-22 03:49:00,